www.pogodaiklimat.ru

Погода и климат >> Архив погоды >> Пакистан >> Лахор


ПОГОДА в Лахоре

  • Прогноз погоды в Лахоре
  • Монитор погоды в Лахоре

АРХИВ ПОГОДЫ в Лахоре

Время (UTC), дата Ветер
(напр.,м/с)
 
Видим.   Явления Облачность Т
(С)
Тd
(С)
f
(%)
Тe
(С)
Тes
(С)
Комфортность P
(гПа)
Po
(гПа)
Тmin
(С)
Tmax
(С)
R
(мм)
R24
(мм)
S
(см)
18 16.01 штиль 0 2000 м дымка ясно +12.5 +9.6 82 +12 +12 1019.2 993.4
21 16.01 штиль 0 2000 м дымка ясно +10.5 +8.5 87 +10 +10 1019.2 1000.0
00 17.01 штиль 0 1000 м дымка ясно +8.5 +6.3 86 +8 +8 1018.3 992.4
03 17.01 штиль 0 1000 м дымка ясно +6.5 +4.5 87 +6 +7 1019.5 993.3 +5.7
06 17.01 штиль 0 2000 м дым ясно +13.0 +4.3 55 +13 +23 1020.8 995.1
09 17.01 З 2 4000 м мгла ясно +18.5 +6.5 45 +20 +26 1017.2 1000.0
12 17.01 штиль 0 4000 м мгла ясно +19.0 +7.2 46 +19 +19 1015.9 991.0 +20.5
15 17.01 штиль 0 4000 м дым ясно +12.5 +7.4 71 +12 +12 1017.5 1000.0
18 17.01 штиль 0 4000 м дым ясно +11.0 +6.8 75 +10 +10 1018.9 993.1
21 17.01 штиль 0 2000 м дымка ясно +10.5 +8.5 87 +10 +10 1019.2 1000.0
00 18.01 штиль 0 2000 м дымка ясно +8.0 +5.8 86 +7 +7 1017.7 991.8
03 18.01 штиль 0 2000 м дымка 6/4 300 м
[Sc Ac trans]
+9.0 +6.9 87 +8 +9 1018.8 992.8 +5.5
06 18.01 штиль 0 4000 м мгла 6/0
[Ac trans Ci fib]
+17.0 +5.7 47 +17 +25 1019.5 994.2
09 18.01 штиль 0 4000 м мгла 5/0
[Ac trans Ci fib]
+20.0 +4.6 36 +20 +26 1017.1 1000.0
12 18.01 СЗ 1 4000 м мгла 8/6 300 м
[Sc Ac trans]
+19.0 +7.2 46 +21 +21 комфорт 1016.3 991.4 +21.1
15 18.01 штиль 0 4000 м дым 3/0
[Ci fib]
+14.5 +8.6 68 +14 +14 1017.3 1000.0
18 18.01 штиль 0 2000 м дым ясно +13.0 +8.0 72 +13 +13 1017.4 991.9
21 18.01 штиль 0 2000 м дым ясно +12.5 +7.4 71 +12 +12 1017.3 1000.0
00 19.01 штиль 0 2000 м дым ясно +10.0 +5.7 75 +9 +9 1017.1 991.4
03 19.01 штиль 0 2000 м дымка 4/0
[Ci fib]
+9.5 +6.3 80 +9 +10 1017.6 991.8 +8.5
06 19.01 штиль 0 4000 м мгла 5/0
[Ci fib]
+16.5 +5.0 46 +16 +26 1019.4 994.0
09 19.01 штиль 0 4000 м мгла 6/5 300 м
[Sc Ac trans]
+20.0 +4.6 36 +20 +24 1016.8 1000.0
12 19.01 З 1 4000 м мгла 8/3 1200 м
[Sc Ac trans Ci fib]
+20.5 +6.8 41 +23 +23 комфорт 1015.8 991.0 +22.0
15 19.01 штиль 0 4000 м дым 5/0
[Ac trans Ci fib]
+16.0 +9.3 64 +16 +16 1016.9 1000.0
18 19.01 СЗ 1 4000 м дым 6/4 300 м
[Sc Ac trans]
+13.5 +8.5 72 +15 +15 1017.8 992.4
21 19.01 штиль 0 2000 м дым 6/4 1200 м
[Sc Ac trans]
+12.0 +7.9 76 +12 +12 1017.4 1017.0
00 20.01 СЗ 1 2000 м дымка 6/5 300 м
[Sc As op]
+10.5 +7.4 81 +11 +11 1017.1 991.4
03 20.01 штиль 0 1000 м дымка 5/1 1200 м
[Sc Ac trans]
+11.0 +7.9 81 +10 +11 1017.8 992.2 +9.1
06 20.01 штиль 0 2000 м дым 5/1 1200 м
[Sc Ac trans]
+18.0 +8.3 53 +18 +25 1018.5 993.3
09 20.01 штиль 0 2000 м мгла 8/6 300 м
[Sc As op]
+20.0 +6.1 40 +21 +23 комфорт 1016.0 1000.0
12 20.01 СЗ 3 2000 м дым 9/8 300 м
[Sc As op]
+17.5 +11.1 66 +18 +18 1015.8 990.8 +21.1
15 20.01 С 3 4000 м дым {морось} 8/6 300 м
[Sc As op]
+13.5 +7.4 67 +13 +13 1015.9 1000.0 0.0
18 20.01 З 2 4000 м в посл. час дождь {морось} 9/8 300 м
[Sc As op]
+13.5 +9.6 77 +13 +13 1017.0 991.6 0.3
21 20.01 ЮЗ 1 4000 м в посл. час гроза {дождь} 9/9 300 м
[Cb cap As op]
+12.0 +9.0 82 +12 +12 1016.1 1000.0 2
00 21.01 штиль 0 4000 м в посл. час гроза {дождь} 9/5 1200 м
[Sc As op]
+12.0 +10.1 88 +11 +11 1014.5 989.0 2
03 21.01 С 1 4000 м слаб. морось {дождь} 10/10 300 м
[Sc As op]
+12.5 +10.6 88 +13 +13 1015.7 990.2 +10.9 2
06 21.01 штиль 0 2000 м дымка {дождь} 9/4 1200 м
[Sc As op]
+15.0 +12.3 84 +15 +17 1016.3 990.8 1
09 21.01 СВ 1 2000 м в посл. час гроза {морось} 10/10 300 м
[Cb cap As op]
+14.0 +12.2 89 +14 +14 1013.8 1000.0 4
12 21.01 З 1 1000 м гроза, ливневой дождь 9/8 300 м
[Cb cap As trans]
+13.5 +11.6 88 +14 +14 1012.7 987.4 +15.1 5
15 21.01 С 1 2000 м слаб. морось {гроза, дождь} 8/4 1200 м
[Sc As trans]
+12.5 +10.6 88 +12 +12 1010.7 1011.0 0.4
18 21.01 ЮВ 1 2000 м дымка 10/10 300 м
[Sc As trans]
+12.5 +11.6 94 +12 +12 1012.2 936.8 0.4
21 21.01 штиль 0 2000 м дымка 10/10 300 м
[Sc As trans]
+11.5 +10.5 94 +11 +11 1012.8 1000.0
00 22.01 штиль 0 2000 м дымка 9/9 300 м
[Sc As trans]
+11.5 +10.5 94 +11 +11 1012.1 986.6
03 22.01 штиль 0 2000 м дымка 9/4 1200 м
[Sc As trans]
+12.0 +11.1 94 +11 +12 1012.5 987.1 +10.8
06 22.01 В 1 2000 м дымка 9/9 300 м
[Sc As op]
+12.5 +10.6 88 +12 +13 1014.8 989.3
09 22.01 штиль 0 4000 м дым 8/3 900 м
[Sc Ac As]
+14.5 +10.7 78 +14 +17 1013.6 1014.0
12 22.01 ЮВ 1 4000 м слаб. морось 8/6 300 м
[Sc Ac As]
+14.5 +11.7 83 +16 +16 1014.0 988.7 +15.1 0.0
15 22.01 С 1 4000 м зарница {морось} 8/6 300 м
[Cb cap As trans]
+13.0 +10.1 83 +14 +14 1016.4 1000.0 0.0
18 22.01 штиль 0 2000 м гроза, ливневой дождь 10/10 300 м
[Cb cap As trans]
+9.0 +8.0 93 +8 +8 1017.8 992.0 11
21 22.01 штиль 0 4000 м дым {гроза, дождь} 9/4 1200 м
[Sc As trans]
+8.5 +7.4 93 +8 +8 1018.2 1018.0 1
00 23.01 штиль 0 4000 м дым 8/8 300 м
[Sc As trans]
+8.5 +7.4 93 +8 +8 1018.2 992.3
03 23.01 штиль 0 4000 м дым ясно +8.0 +6.9 93 +7 +9 1019.3 993.2 +6.9
06 23.01 штиль 0 4000 м дым ясно +13.5 +9.6 77 +13 +24 опасность
простуды
1020.3 994.7
09 23.01 З 1 4000 м дым 8/5 300 м
[Sc As op]
+16.0 +8.1 59 +17 +20 1018.1 1000.0
12 23.01 З 1 4000 м дым 3/0
[As op]
+15.0 +9.2 68 +16 +16 1018.6 993.1 +16.3

 

Местоположение метеостанции Лахор (Пакистан): широта 31.55 долгота 74.33 высота над уровнем моря 215 м.

В архиве по умолчанию представлена погода в Лахоре за последнюю неделю. Архивные данные за месяц целиком и за предыдущие месяцы, начиная с января 2011 года, Вы можете получить, выбрав интересующий диапазон дат из раскрывающегося списка и нажав кнопку "Ввод!".


*Определитесь, кто Вы:
робот инопланетянин человек

Внимание! Время в таблицах - всемирное. Для получения местного времени необходимо прибавить поправку, которая равна 5 ч.

Смотрите также архив погоды в соседних городах и на ближайших метеорологических станциях:

Погода в Амритсаре (Пенджаб, Индия) (52 км)
Погода в Сиялкоте (Пакистан) (107 км)
Погода в Фейсалабаде (Пакистан) (117 км)
Погода в Джамму (Джамму и Кашмир, Индия) (133 км)
Погода в Джеламе (Пакистан) (164 км)
Погода в Саргодхе (Пакистан) (166 км)
Погода в Катре (Джамму и Кашмир, Индия) (170 км)
Погода в Лудхиане (Пенджаб, Индия) (170 км)
Погода в Уне (Химачал-Прадеш, Индия) (184 км)
Погода в Шри-Ганганагаре (Раджастхан, Индия) (185 км)

Пояснения к столбцам:

Ветер - указаны скорость ветра в м/с - средняя за 10 мин, порывы в срок и между сроками (в фигурных скобках) и направление, откуда дует ветер: С - северный, СВ - северо-восточный, В - восточный, ЮВ - юго-восточный, Ю - южный, ЮЗ - юго-западный, З - западный, СЗ - северо-западный.
Видимость - горизонтальная дальность видимости в метрах или километрах. При видимости от 1 до 10 км при отсутствии осадков обычно наблюдается дымка, при ухудшении видимости до 1 км и менее - туман. В сухую погоду видимость может ухудшаться дымом, пылью или мглою.
Явления - указаны атмосферные явления, наблюдавшиеся в срок или в последний час перед сроком; фигурными скобками обозначены явления, наблюдавшиеся между сроками (за 1-3 часа до срока); квадратными скобками обозначены град или гололедные отложения с указанием их диаметра в мм.
Облачность - указаны через наклонную черту общая и нижняя облачность в баллах и высота нижней границы облаков в метрах; квадратными скобками обозначены формы облаков: Ci - перистые, Cs - перисто-слоистые, Cc - перисто-кучевые, Ac - высококучевые, As - высокослоистые, Sc - слоисто-кучевые, Ns - слоисто-дождевые, Cu - кучевые, Cb - кучево-дождевые. Подробнее классификацию облаков см. в Атласе облаков (PDF).
T - Температура воздуха - температура, измеренная на высоте 2 м над землей.
Td - Температура точки росы - температура, при понижении до которой содержащийся в воздухе водяной пар достигнет насыщения.
f - Относительная влажность воздуха - влажноcть воздуха, измеренная на высоте 2 м над землей.
Te - Эффективная температура - температура, которую ощущает одетый по сезону человек в тени. Характеристика душности погоды. При расчете учитывается влияние влажности воздуха и скорости ветра на теплоощущения человека.
Tes - Эффективная температура на солнце - температура, которую ощущает человек, с поправкой на солнечный нагрев. Характеристика знойности погоды. Зависит от высоты солнца над горизонтом, облачности и скорости ветра. Ночью, в пасмурную погоду, а также при ветре 12 м/с и более поправка равна нулю.
P - Атмосферное давление - приведенное к уровню моря атмосферное давление.
Po - Атмосферное давление - измеренное на уровне метеостанции атмосферное давление.
Tmin - Минимальная температура - минимум температуры воздуха на высоте 2 м над землей.
Tmax - Максимальная температура - максимум температуры воздуха на высоте 2 м над землей.
R - Количество осадков - Количество выпавших осадков за период времени, мм. При наведении курсора мыши на число - период времени, за который выпало указанное количество осадков.
R24 - Количество осадков - Количество выпавших осадков за 24 часа, мм.
S - Снежный покров - Высота снежного покрова, см. При наведении курсора мыши на число - состояние снежного покрова и степень покрытия местности в баллах.